Location: Le Gr�zie
(43.6000°N, 13.5000°E)
Time: 02:19:20
(UTC+00:00)

SL-8 Rocket - Pass Details

Date: 09 April 2020
Orbit: 957 x 991 km, 82.9° (Epoch: 05 June)

Event Time Altitude Azimuth Distance (km) Brightness Sun altitude
Rises 19:22:52 0° 354° (N) 3,710 7.6 -17.7°
Reaches altitude 10° 19:25:26 10° 357° (N) 2,760 6.8 -18.1°
Maximum altitude 19:31:44 67° 80° (E) 1,071 4.0 -19.1°
Enters shadow 19:35:19 27° 156° (SSE) 1,796 4.9 -19.6°
